Weather History for KSAT - March, 2013

Change the Weather History Date:

Friday, March 29, 2013

  Actual Average Record
Temperature  
Mean Temperature 68 °F 65 °F  
Max Temperature 78 °F 77 °F 94 °F (2000)
Min Temperature 57 °F 54 °F 35 °F (1987)
Degree Days  
Heating Degree Days 0 3  
Month to date heating degree days 140 147  
Since 1 July heating degree days 1134 1448  
Cooling Degree Days 3 3  
Month to date cooling degree days 60 60  
Year to date cooling degree days 100 86  
Growing Degree Days 18 (Base 50)    
Moisture  
Dew Point 58 °F    
Average Humidity 70    
Maximum Humidity 93    
Minimum Humidity 47    
Precipitation  
Precipitation 0.00 in 0.07 in 2.63 in (1922)
Month to date precipitation 0.76 2.19  
Year to date precipitation 3.69 5.74  
Snow  
Snow 0.00 in - - ()
Month to date snowfall 0.0  
Since 1 July snowfall T  
Snow Depth 0.00 in    
Sea Level Pressure  
Sea Level Pressure 30.10 in    
Wind  
Wind Speed 10 mph (SSE)    
Max Wind Speed 20 mph    
Max Gust Speed 25 mph    
Visibility 10 miles    
Events Fog    
T = Trace of Precipitation, MM = Missing Value Source: NWS Daily Summary

Daily Weather History Graph

Daily Weather History Graph

Search for Another Location

Airport or City:

Trip Planner

Search our weather history database for the weather conditions in past years. The results will help you decide how hot, cold, wet, or windy it might be!

Date:

Astronomy

Mar. 29, 2013 Rise Set
Actual Time 7:26 AM CDT 7:50 PM CDT
Civil Twilight 7:02 AM CDT 8:14 PM CDT
Nautical Twilight 6:34 AM CDT 8:42 PM CDT
Astronomical Twilight 6:06 AM CDT 9:11 PM CDT
Moon 10:36 PM CDT (3/29) 8:49 AM CDT (3/29)
Length of Visible Light 13h 11m
Length of Day
12h 24m
Waning Gibbous, 93% of the Moon is Illuminated
Mar 29
Waning Gibbous
Apr 2
Last Quarter
Apr 10
New
Apr 18
First Quarter
Apr 25
Full

Hourly Weather History & Observations

Time (CDT) Temp. Dew Point Humidity Pressure Visibility Wind Dir Wind Speed Gust Speed Precip Events Conditions
12:51 AM 63.0 °F 57.9 °F 84% 30.14 in 10.0 mi SSE 8.1 mph - N/A   Overcast
1:51 AM 63.0 °F 57.9 °F 84% 30.14 in 10.0 mi South 5.8 mph - N/A   Overcast
2:51 AM 62.1 °F 57.9 °F 86% 30.13 in 10.0 mi SSE 9.2 mph - N/A   Overcast
3:51 AM 62.1 °F 57.9 °F 86% 30.12 in 10.0 mi South 10.4 mph - N/A   Overcast
4:51 AM 59.0 °F 57.9 °F 96% 30.10 in 10.0 mi SSE 8.1 mph - N/A   Scattered Clouds
5:07 AM 59.0 °F 57.2 °F 94% 30.13 in 10.0 mi ESE 4.6 mph - N/A   Mostly Cloudy
5:11 AM 59.0 °F 57.2 °F 94% 30.13 in 10.0 mi ESE 5.8 mph - N/A   Mostly Cloudy
5:31 AM 60.8 °F 57.2 °F 88% 30.14 in 10.0 mi SSE 5.8 mph - N/A   Overcast
5:46 AM 57.2 °F 57.2 °F 100% 30.13 in 10.0 mi SE 4.6 mph - N/A   Mostly Cloudy
5:51 AM 57.0 °F 55.9 °F 96% 30.10 in 9.0 mi SE 6.9 mph - N/A   Mostly Cloudy
6:35 AM 57.2 °F 55.4 °F 94% 30.14 in 9.0 mi SE 4.6 mph - N/A   Partly Cloudy
6:45 AM 57.2 °F 57.2 °F 100% 30.14 in 8.0 mi SSE 4.6 mph - N/A   Mostly Cloudy
6:51 AM 59.0 °F 57.9 °F 96% 30.11 in 9.0 mi South 6.9 mph - N/A   Mostly Cloudy
7:51 AM 59.0 °F 57.9 °F 96% 30.12 in 8.0 mi SSE 4.6 mph - N/A Fog Patches of Fog
8:51 AM 62.1 °F 60.1 °F 93% 30.13 in 9.0 mi SE 5.8 mph - N/A Fog Patches of Fog
9:51 AM 64.9 °F 59.0 °F 81% 30.13 in 10.0 mi SSE 10.4 mph - N/A   Overcast
10:51 AM 69.1 °F 59.0 °F 70% 30.13 in 10.0 mi South 11.5 mph - N/A   Mostly Cloudy
11:04 AM 71.6 °F 59.0 °F 64% 30.18 in 10.0 mi South 13.8 mph 24.2 mph N/A   Mostly Cloudy
11:51 AM 73.9 °F 57.0 °F 55% 30.13 in 10.0 mi SSE 13.8 mph 20.7 mph N/A   Mostly Cloudy
12:51 PM 77.0 °F 55.9 °F 48% 30.11 in 10.0 mi South 13.8 mph - N/A   Overcast
1:51 PM 75.9 °F 55.9 °F 50% 30.08 in 10.0 mi South 11.5 mph 19.6 mph N/A   Overcast
2:51 PM 75.9 °F 55.9 °F 50% 30.06 in 10.0 mi South 10.4 mph - N/A   Overcast
3:51 PM 77.0 °F 55.9 °F 48% 30.04 in 10.0 mi SSE 9.2 mph - N/A   Overcast
4:51 PM 77.0 °F 55.0 °F 47% 30.02 in 10.0 mi SE 13.8 mph - N/A   Overcast
5:51 PM 77.0 °F 55.9 °F 48% 30.02 in 10.0 mi SSE 11.5 mph - N/A   Overcast
6:51 PM 75.9 °F 57.0 °F 52% 30.01 in 10.0 mi SSE 11.5 mph - N/A   Overcast
7:51 PM 73.9 °F 57.9 °F 57% 30.02 in 10.0 mi SSE 12.7 mph - N/A   Overcast
8:51 PM 72.0 °F 57.9 °F 61% 30.03 in 10.0 mi SE 12.7 mph - N/A   Overcast
9:51 PM 70.0 °F 57.9 °F 65% 30.04 in 10.0 mi SE 16.1 mph - N/A   Overcast
10:51 PM 69.1 °F 60.1 °F 73% 30.06 in 10.0 mi SE 13.8 mph - N/A   Overcast
11:39 PM 68.0 °F 60.8 °F 78% 30.11 in 10.0 mi SSE 9.2 mph - N/A   Overcast
11:51 PM 66.9 °F 61.0 °F 81% 30.06 in 10.0 mi SE 9.2 mph - N/A   Overcast